Weather History for PAWG - May, 2014

Change the Weather History Date:

Saturday, May 24, 2014

  Actual Average Record
Temperature  
Mean Temperature 50 °F -  
Max Temperature 57 °F 57 °F 75 °F (1969)
Min Temperature 44 °F 42 °F 32 °F (1975)
Degree Days  
Heating Degree Days 14    
Moisture  
Dew Point 41 °F    
Average Humidity 70    
Maximum Humidity 87    
Minimum Humidity 51    
Precipitation  
Precipitation 0.00 in - - ()
Sea Level Pressure  
Sea Level Pressure 30.09 in    
Wind  
Wind Speed 4 mph (WNW)    
Max Wind Speed 8 mph    
Max Gust Speed -    
Visibility 10 miles    
Events      
Averages and records for this station are not official NWS values.
T = Trace of Precipitation, MM = Missing Value Source: NWS Daily Summary

Daily Weather History Graph

Daily Weather History Graph

Search for Another Location

Airport or City:

Trip Planner

Search our weather history database for the weather conditions in past years. The results will help you decide how hot, cold, wet, or windy it might be!

Date:

Astronomy

May. 24, 2014 Rise Set
Actual Time 4:18 AM AKDT 9:15 PM AKDT
Civil Twilight 3:22 AM AKDT 10:11 PM AKDT
Nautical Twilight 1:36 AM AKDT 12:02 AM AKDT
Astronomical Twilight Sun does not set Sun does not set
Moon 2:44 AM AKDT (5/24) 4:33 PM AKDT (5/24)
Length of Visible Light 18h 48m
Length of Day
16h 57m
Waning Crescent, 16% of the Moon is Illuminated
May 24
Waning Crescent
May 28
New
Jun 5
First Quarter
Jun 12
Full
Jun 19
Last Quarter

Hourly Weather History & Observations

Time (AKDT) Temp. Windchill Dew Point Humidity Pressure Visibility Wind Dir Wind Speed Gust Speed Precip Events Conditions
12:16 AM 48.2 °F - 41.0 °F 76% 30.07 in 10.0 mi West 4.6 mph - N/A   Mostly Cloudy
12:36 AM 48.2 °F - 41.0 °F 76% 30.08 in 10.0 mi ESE 3.5 mph - N/A   Scattered Clouds
12:56 AM 46.4 °F - 41.0 °F 81% 30.09 in 10.0 mi Calm Calm - N/A   Scattered Clouds
1:16 AM 46.4 °F - 39.2 °F 76% 30.09 in 10.0 mi Calm Calm - N/A   Scattered Clouds
1:36 AM 48.2 °F - 41.0 °F 76% 30.09 in 10.0 mi WNW 3.5 mph - N/A   Partly Cloudy
1:56 AM 48.2 °F - 39.2 °F 71% 30.10 in 10.0 mi NW 3.5 mph - N/A   Clear
2:16 AM 46.4 °F - 37.4 °F 71% 30.10 in 10.0 mi Calm Calm - N/A   Clear
2:36 AM 46.4 °F 45.2 °F 37.4 °F 71% 30.11 in 10.0 mi WSW 3.5 mph - N/A   Clear
2:56 AM 46.4 °F 43.5 °F 37.4 °F 71% 30.11 in 10.0 mi SW 5.8 mph - N/A   Clear
3:16 AM 44.6 °F 42.2 °F 37.4 °F 76% 30.12 in 10.0 mi SE 4.6 mph - N/A   Clear
3:36 AM 44.6 °F - 37.4 °F 76% 30.12 in 10.0 mi Calm Calm - N/A   Clear
3:56 AM 46.4 °F - 39.2 °F 76% 30.12 in 10.0 mi Calm Calm - N/A   Clear
4:16 AM 46.4 °F 45.2 °F 39.2 °F 76% 30.12 in 10.0 mi ENE 3.5 mph - N/A   Partly Cloudy
4:36 AM 44.6 °F - 39.2 °F 81% 30.13 in 10.0 mi Calm Calm - N/A   Partly Cloudy
4:56 AM 44.6 °F 43.1 °F 39.2 °F 81% 30.14 in 10.0 mi SE 3.5 mph - N/A   Clear
5:16 AM 44.6 °F 43.1 °F 37.4 °F 76% 30.13 in 10.0 mi SE 3.5 mph - N/A   Partly Cloudy
5:36 AM 44.6 °F 42.2 °F 39.2 °F 81% 30.14 in 10.0 mi ESE 4.6 mph - N/A   Partly Cloudy
5:56 AM 44.6 °F 42.2 °F 39.2 °F 81% 30.14 in 10.0 mi SE 4.6 mph - N/A   Scattered Clouds
6:16 AM 44.6 °F 42.2 °F 39.2 °F 81% 30.13 in 10.0 mi SSE 4.6 mph - N/A   Scattered Clouds
6:36 AM 46.4 °F 44.3 °F 41.0 °F 81% 30.14 in 10.0 mi SE 4.6 mph - N/A   Scattered Clouds
6:56 AM 46.4 °F 45.2 °F 41.0 °F 81% 30.13 in 10.0 mi SE 3.5 mph - N/A   Scattered Clouds
7:16 AM 46.4 °F 45.2 °F 42.8 °F 87% 30.14 in 10.0 mi ESE 3.5 mph - N/A   Scattered Clouds
7:36 AM 46.4 °F 45.2 °F 41.0 °F 81% 30.14 in 10.0 mi ESE 3.5 mph - N/A   Scattered Clouds
7:56 AM 48.2 °F - 42.8 °F 82% 30.14 in 10.0 mi ENE 3.5 mph - N/A   Scattered Clouds
8:16 AM 48.2 °F - 42.8 °F 82% 30.14 in 10.0 mi NNW 4.6 mph - N/A   Scattered Clouds
8:36 AM 48.2 °F - 41.0 °F 76% 30.13 in 10.0 mi NW 5.8 mph - N/A   Scattered Clouds
8:56 AM 48.2 °F - 41.0 °F 76% 30.14 in 10.0 mi NW 5.8 mph - N/A   Scattered Clouds
9:16 AM 48.2 °F - 41.0 °F 76% 30.13 in 10.0 mi NW 5.8 mph - N/A   Scattered Clouds
9:36 AM 48.2 °F - 41.0 °F 76% 30.13 in 10.0 mi North 4.6 mph - N/A   Scattered Clouds
9:56 AM 48.2 °F - 42.8 °F 82% 30.13 in 10.0 mi North 3.5 mph - N/A   Scattered Clouds
10:16 AM 48.2 °F - 42.8 °F 82% 30.13 in 10.0 mi NW 3.5 mph - N/A   Scattered Clouds
10:36 AM 48.2 °F - 42.8 °F 82% 30.13 in 10.0 mi NW 4.6 mph - N/A   Scattered Clouds
10:56 AM 50.0 °F - 41.0 °F 71% 30.13 in 10.0 mi NNW 4.6 mph - N/A   Scattered Clouds
11:16 AM 51.8 °F - 42.8 °F 71% 30.12 in 10.0 mi NW 3.5 mph - N/A   Scattered Clouds
11:36 AM 50.0 °F - 41.0 °F 71% 30.12 in 10.0 mi NNW 4.6 mph - N/A   Scattered Clouds
11:56 AM 51.8 °F - 42.8 °F 71% 30.12 in 10.0 mi NNW 4.6 mph - N/A   Scattered Clouds
12:16 PM 51.8 °F - 42.8 °F 71% 30.12 in 10.0 mi NNW 4.6 mph - N/A   Scattered Clouds
12:36 PM 51.8 °F - 41.0 °F 67% 30.11 in 10.0 mi NW 5.8 mph - N/A   Scattered Clouds
12:56 PM 51.8 °F - 42.8 °F 71% 30.11 in 10.0 mi NW 4.6 mph - N/A   Scattered Clouds
1:16 PM 51.8 °F - 42.8 °F 71% 30.11 in 10.0 mi NNW 4.6 mph - N/A   Scattered Clouds
1:36 PM 51.8 °F - 39.2 °F 62% 30.11 in 10.0 mi NW 4.6 mph - N/A   Scattered Clouds
1:56 PM 53.6 °F - 41.0 °F 62% 30.10 in 10.0 mi NNW 5.8 mph - N/A   Mostly Cloudy
2:16 PM 53.6 °F - 41.0 °F 62% 30.10 in 10.0 mi NNW 4.6 mph - N/A   Mostly Cloudy
2:36 PM 53.6 °F - 41.0 °F 62% 30.09 in 10.0 mi NNW 6.9 mph - N/A   Mostly Cloudy
2:56 PM 55.4 °F - 39.2 °F 54% 30.09 in 10.0 mi NW 4.6 mph - N/A   Mostly Cloudy
3:16 PM 55.4 °F - 41.0 °F 58% 30.09 in 10.0 mi WNW 4.6 mph - N/A   Mostly Cloudy
3:36 PM 57.2 °F - 41.0 °F 55% 30.08 in 10.0 mi NW 3.5 mph - N/A   Mostly Cloudy
3:56 PM 57.2 °F - 39.2 °F 51% 30.07 in 10.0 mi West 8.1 mph - N/A   Mostly Cloudy
4:16 PM 57.2 °F - 39.2 °F 51% 30.07 in 10.0 mi West 4.6 mph - N/A   Mostly Cloudy
4:36 PM 57.2 °F - 39.2 °F 51% 30.07 in 10.0 mi Calm Calm - N/A   Mostly Cloudy
4:56 PM 55.4 °F - 44.6 °F 67% 30.06 in 10.0 mi Calm Calm - N/A   Mostly Cloudy
5:16 PM 55.4 °F - 39.2 °F 54% 30.05 in 10.0 mi NNW 4.6 mph - N/A   Mostly Cloudy
5:36 PM 55.4 °F - 39.2 °F 54% 30.05 in 10.0 mi West 4.6 mph - N/A   Mostly Cloudy
5:56 PM 57.2 °F - 39.2 °F 51% 30.05 in 10.0 mi WSW 4.6 mph - N/A   Mostly Cloudy
6:16 PM 57.2 °F - 39.2 °F 51% 30.04 in 10.0 mi WSW 3.5 mph - N/A   Mostly Cloudy
6:36 PM 57.2 °F - 39.2 °F 51% 30.04 in 10.0 mi Calm Calm - N/A   Mostly Cloudy
6:56 PM 53.6 °F - 41.0 °F 62% 30.04 in 10.0 mi Calm Calm - N/A   Mostly Cloudy
7:16 PM 55.4 °F - 42.8 °F 63% 30.04 in 10.0 mi Calm Calm - N/A   Mostly Cloudy
7:36 PM 55.4 °F - 44.6 °F 67% 30.04 in 10.0 mi SSE 3.5 mph - N/A   Mostly Cloudy
7:56 PM 55.4 °F - 42.8 °F 63% 30.04 in 10.0 mi ESE 3.5 mph - N/A   Mostly Cloudy
8:16 PM 53.6 °F - 44.6 °F 72% 30.04 in 10.0 mi East 3.5 mph - N/A   Mostly Cloudy
8:36 PM 53.6 °F - 44.6 °F 72% 30.03 in 10.0 mi SE 4.6 mph - N/A   Mostly Cloudy
8:56 PM 53.6 °F - 42.8 °F 67% 30.03 in 10.0 mi SE 4.6 mph - N/A   Mostly Cloudy
9:16 PM 53.6 °F - 41.0 °F 62% 30.04 in 10.0 mi SSW 4.6 mph - N/A   Mostly Cloudy
9:36 PM 53.6 °F - 41.0 °F 62% 30.04 in 10.0 mi SE 6.9 mph - N/A   Mostly Cloudy
9:56 PM 51.8 °F - 42.8 °F 71% 30.04 in 10.0 mi SE 5.8 mph - N/A   Mostly Cloudy
10:16 PM 51.8 °F - 42.8 °F 71% 30.04 in 10.0 mi SE 4.6 mph - N/A   Mostly Cloudy
10:36 PM 50.0 °F - 41.0 °F 71% 30.04 in 10.0 mi SE 6.9 mph - N/A   Mostly Cloudy
10:56 PM 48.2 °F - 41.0 °F 76% 30.04 in 10.0 mi SE 6.9 mph - N/A   Mostly Cloudy
11:16 PM 48.2 °F - 39.2 °F 71% 30.04 in 10.0 mi SE 6.9 mph - N/A   Clear
11:36 PM 48.2 °F - 39.2 °F 71% 30.05 in 10.0 mi SE 5.8 mph - N/A   Clear
11:56 PM 48.2 °F - 39.2 °F 71% 30.04 in 10.0 mi SE 6.9 mph - N/A   Clear